Gulfport, MS

12:28 AM CDT on April 27, 2018 (GMT -0500)
Gulfport-Biloxi Regional

Weather History for KGPT - February, 2014

Change the Weather History Date:

Tuesday, February 18, 2014

  Actual Average Record
Temperature  
Mean Temperature 66 °F -  
Max Temperature 70 °F 65 °F 79 °F (1959)
Min Temperature 62 °F 47 °F 24 °F (1958)
Cooling Degree Days 1    
Growing Degree Days 16 (Base 50)    
Moisture  
Dew Point 61 °F    
Average Humidity 90    
Maximum Humidity 96    
Minimum Humidity 76    
Precipitation  
Precipitation 0.00 in - - ()
Sea Level Pressure  
Sea Level Pressure 30.13 in    
Wind  
Wind Speed 4 mph (South)    
Max Wind Speed 10 mph    
Max Gust Speed -    
Visibility 4 miles    
Events Fog    
Averages and records for this station are not official NWS values.
T = Trace of Precipitation, MM = Missing Value Source: NWS Daily Summary

Daily Weather History Graph

Daily Weather History Graph

Search for Another Location

Airport or City:

Astronomy

Feb. 18, 2014 Rise Set
Actual Time 6:33 AM CST 5:46 PM CST
Civil Twilight 6:09 AM CST 6:11 PM CST
Nautical Twilight 5:41 AM CST 6:39 PM CST
Astronomical Twilight 5:13 AM CST 7:07 PM CST
Moon 9:20 PM CST (2/18) 8:23 AM CST (2/18)
Length of Visible Light 12h 02m
Length of Day
11h 13m
Waning Gibbous, 87% of the Moon is Illuminated
Feb 18
Waning Gibbous
Feb 22
Last Quarter
Mar 1
New
Mar 8
First Quarter
Mar 16
Full

Hourly Weather History & Observations

Time (CST) Temp. Dew Point Humidity Pressure Visibility Wind Dir Wind Speed Gust Speed Precip Events Conditions
12:15 AM 64.0 °F 62.1 °F 93% 30.14 in 2.5 mi SW 3.5 mph - N/A   Overcast
12:23 AM 64.9 °F 62.1 °F 90% 30.14 in 4.0 mi WSW 4.6 mph - N/A   Overcast
12:53 AM 64.9 °F 62.1 °F 90% 30.14 in 4.0 mi Calm Calm - N/A   Overcast
1:53 AM 64.9 °F 62.1 °F 90% 30.13 in 4.0 mi SSW 4.6 mph - N/A   Overcast
2:26 AM 64.9 °F 62.1 °F 90% 30.12 in 1.8 mi SW 4.6 mph - N/A   Overcast
2:53 AM 64.0 °F 62.1 °F 93% 30.12 in 0.5 mi SW 4.6 mph - N/A   Unknown
3:07 AM 64.0 °F 62.1 °F 93% 30.12 in 0.2 mi SW 5.8 mph - N/A   Unknown
3:19 AM 63.0 °F 61.0 °F 93% 30.12 in 0.5 mi SSW 4.6 mph - N/A   Unknown
3:32 AM 63.0 °F 61.0 °F 93% 30.12 in 0.2 mi SW 4.6 mph - N/A   Unknown
3:53 AM 63.0 °F 61.0 °F 93% 30.12 in 0.2 mi Calm Calm - N/A   Unknown
4:21 AM 63.0 °F 61.0 °F 93% 30.12 in 0.5 mi Calm Calm - N/A   Unknown
4:53 AM 63.0 °F 60.1 °F 90% 30.12 in 0.5 mi Calm Calm - N/A   Unknown
5:18 AM 63.0 °F 61.0 °F 93% 30.13 in 0.2 mi Calm Calm - N/A   Unknown
5:53 AM 62.1 °F 61.0 °F 96% 30.14 in 0.2 mi Calm Calm - N/A   Unknown
5:54 AM 62.1 °F 61.0 °F 96% 30.14 in 0.2 mi Calm Calm - N/A Fog Fog
6:53 AM 62.1 °F 60.1 °F 93% 30.15 in 0.2 mi Calm Calm - N/A Fog Fog
7:53 AM 63.0 °F 60.1 °F 90% 30.16 in 0.2 mi South 3.5 mph - N/A Fog Fog
8:33 AM 63.0 °F 60.1 °F 90% 30.17 in 0.5 mi SSE 3.5 mph - N/A Fog Fog
8:46 AM 63.0 °F 61.0 °F 93% 30.18 in 1.2 mi South 3.5 mph - N/A   Overcast
8:53 AM 63.0 °F 61.0 °F 93% 30.18 in 1.0 mi Calm Calm - N/A   Overcast
9:02 AM 63.0 °F 61.0 °F 93% 30.18 in 0.2 mi Calm Calm - N/A Fog Fog
9:53 AM 64.0 °F 61.0 °F 90% 30.18 in 0.2 mi South 3.5 mph - N/A Fog Fog
10:28 AM 63.0 °F 61.0 °F 93% 30.19 in 1.2 mi South 6.9 mph - N/A   Overcast
10:31 AM 64.0 °F 61.0 °F 90% 30.18 in 3.0 mi South 5.8 mph - N/A   Overcast
10:33 AM 64.0 °F 61.0 °F 90% 30.18 in 0.5 mi South 5.8 mph - N/A Fog Fog
10:40 AM 64.0 °F 61.0 °F 90% 30.19 in 0.2 mi South 6.9 mph - N/A Fog Fog
10:53 AM 63.0 °F 61.0 °F 93% 30.19 in 3.0 mi SSW 4.6 mph - N/A   Overcast
11:01 AM 64.0 °F 61.0 °F 90% 30.18 in 3.0 mi SW 3.5 mph - N/A   Overcast
11:53 AM 66.9 °F 62.1 °F 84% 30.17 in 10.0 mi SSW 4.6 mph - N/A   Overcast
12:37 PM 70.0 °F 63.0 °F 78% 30.15 in 10.0 mi South 9.2 mph - N/A   Mostly Cloudy
12:53 PM 70.0 °F 62.1 °F 76% 30.14 in 10.0 mi SSW 6.9 mph - N/A   Mostly Cloudy
1:53 PM 70.0 °F 62.1 °F 76% 30.12 in 10.0 mi South 8.1 mph - N/A   Mostly Cloudy
2:53 PM 66.0 °F 62.1 °F 87% 30.11 in 10.0 mi SSE 8.1 mph - N/A   Mostly Cloudy
3:00 PM 66.9 °F 62.1 °F 84% 30.10 in 10.0 mi SSE 8.1 mph - N/A   Scattered Clouds
3:38 PM 66.0 °F 62.1 °F 87% 30.10 in 2.0 mi SSE 10.4 mph - N/A   Mostly Cloudy
3:45 PM 66.0 °F 62.1 °F 87% 30.10 in 2.0 mi SE 6.9 mph - N/A   Mostly Cloudy
3:53 PM 66.0 °F 63.0 °F 90% 30.11 in 1.0 mi South 8.1 mph - N/A   Overcast
4:30 PM 64.0 °F 62.1 °F 93% 30.10 in 0.2 mi SSE 6.9 mph - N/A Fog Fog
4:53 PM 64.0 °F 62.1 °F 93% 30.09 in 0.2 mi SSE 8.1 mph - N/A Fog Fog
5:53 PM 64.9 °F 63.0 °F 93% 30.10 in 0.2 mi South 9.2 mph - N/A Fog Fog
6:18 PM 64.9 °F 63.0 °F 93% 30.09 in 0.8 mi South 8.1 mph - N/A Fog Fog
6:53 PM 64.9 °F 63.0 °F 93% 30.09 in 0.5 mi South 6.9 mph - N/A Fog Fog
7:53 PM 64.0 °F 61.0 °F 90% 30.09 in 7.0 mi SSE 5.8 mph - N/A   Mostly Cloudy
8:03 PM 64.0 °F 61.0 °F 90% 30.10 in 10.0 mi South 5.8 mph - N/A   Scattered Clouds
8:53 PM 64.9 °F 61.0 °F 87% 30.08 in 10.0 mi South 9.2 mph - N/A   Partly Cloudy
9:53 PM 64.0 °F 61.0 °F 90% 30.09 in 10.0 mi South 6.9 mph - N/A   Partly Cloudy
10:29 PM 64.0 °F 61.0 °F 90% 30.09 in 10.0 mi South 6.9 mph - N/A   Mostly Cloudy
10:53 PM 64.0 °F 61.0 °F 90% 30.08 in 10.0 mi South 5.8 mph - N/A   Mostly Cloudy
11:19 PM 64.0 °F 61.0 °F 90% 30.08 in 10.0 mi South 5.8 mph - N/A   Scattered Clouds
11:49 PM 62.6 °F 60.8 °F 94% 30.07 in 10.0 mi South 8.1 mph - N/A   Partly Cloudy
11:53 PM 63.0 °F 60.1 °F 90% 30.07 in 10.0 mi South 8.1 mph - N/A   Scattered Clouds